Flag Weather past 2 weeks in Marseille, France

Now
59 °F

Clear.


Feels Like: 59 °F
Forecast: 50 / 70 °F
Wind: No wind

Location: Marseille / Marignane

Current Time: Oct 31, 2014 at 8:36:01 PM

Latest Report: Oct 31, 2014 at 8:00 PM


Visibility: 10 mi

Pressure: 30.24 "Hg

Humidity: 82%

Dew point: 54 °F

Location of MarseilleLocation

Historic Weather in Marseille — Graph

°F

Marseille temperature yesterday

Maximum temperature yesterday: 68 °F (at 2:00 PM)
Minimum temperature yesterday: 46 °F (at 4:00 AM)
Average temperature yesterday: 56 °F

Past Weeks' High & Low Weather Summary

 TemperatureHumidityPressure
High79 °F (Oct 17, 4:00 PM)94% (Oct 18, 1:00 AM)30.30 "Hg (Oct 18, 1:00 AM)
Low46 °F (Oct 29, 7:00 AM)31% (Oct 22, 4:00 PM)29.89 "Hg (Oct 23, 2:30 PM)
Average62 °F70%30.10 "Hg
* Reported Oct 16 8:00 PM — Oct 31 7:00 PM, Marseille, Weather by CustomWeather, © 2014

Note: Actual official high and low records may vary slightly from our data, if they occured in-between our weather recording intervals... More about our weather records

Advertising

Marseille weather history for previous 24 hours

 ConditionsComfort  
Time TempWeatherWind HumidityBarometerVisibility
7:00 PM
Oct 31
61 °FClear.3 mph77%30.24 "Hg10 mi
6:30 PM59 °FClear.5 mph77%30.24 "Hg10 mi
6:00 PM63 °FClear.6 mph77%30.24 "Hg10 mi
5:30 PM63 °FPassing clouds.6 mph77%30.24 "HgN/A
5:00 PM64 °FPassing clouds.6 mph73%30.21 "HgN/A
4:30 PM66 °FPassing clouds.5 mph68%30.21 "HgN/A
4:00 PM66 °FPassing clouds.5 mph68%30.21 "HgN/A
3:30 PM68 °FScattered clouds.7 mph64%30.24 "HgN/A
3:00 PM68 °FScattered clouds.7 mph60%30.24 "HgN/A
2:30 PM68 °FScattered clouds.7 mph60%30.24 "HgN/A
2:00 PM68 °FPassing clouds.9 mph64%30.24 "HgN/A
1:30 PM68 °FPassing clouds.7 mph60%30.24 "HgN/A
1:00 PM70 °FPassing clouds.6 mph53%30.27 "HgN/A
12:30 PM70 °FPassing clouds.3 mph53%30.27 "HgN/A
12:00 PM66 °FPassing clouds.5 mph64%30.27 "HgN/A
11:30 AM64 °FPassing clouds.5 mph73%30.27 "HgN/A
11:00 AM66 °FPassing clouds.5 mph64%30.27 "HgN/A
10:30 AM66 °FSunny.1 mph60%30.30 "Hg10 mi
10:00 AM63 °FSunny.1 mph68%30.30 "Hg10 mi
9:30 AM59 °FSunny.2 mph77%30.30 "Hg10 mi
9:00 AM57 °FPassing clouds.3 mph77%30.27 "HgN/A
8:30 AM57 °FSunny.5 mph77%30.27 "Hg10 mi
8:00 AM55 °FClear.No wind77%30.27 "Hg6 mi
7:00 AM54 °FClear.2 mph82%30.24 "Hg10 mi
6:30 AM52 °FClear.5 mph88%30.24 "Hg6 mi
6:00 AM52 °FClear.3 mph88%30.24 "Hg4 mi
5:30 AM50 °FClear.6 mph88%30.24 "Hg4 mi
5:00 AM52 °FClear.No wind88%30.24 "Hg5 mi
4:30 AM52 °FClear.No wind88%30.24 "Hg6 mi
4:00 AM54 °FClear.3 mph82%30.24 "Hg6 mi
3:30 AM50 °FClear.5 mph88%30.24 "Hg4 mi
3:00 AM50 °FClear.No wind94%30.24 "Hg4 mi
2:30 AM52 °FClear.3 mph88%30.24 "Hg4 mi
2:00 AM50 °FClear.5 mph94%30.24 "Hg4 mi
1:30 AM52 °FClear.2 mph88%30.24 "Hg4 mi
1:00 AM52 °FClear.2 mph88%30.24 "Hg4 mi
12:30 AM50 °FClear.6 mph94%30.24 "Hg4 mi
12:00 AM52 °FClear.3 mph88%30.24 "Hg5 mi
11:30 PM
Oct 30
52 °FClear.3 mph88%30.24 "Hg5 mi
11:00 PM54 °FClear.3 mph82%30.24 "Hg6 mi
10:30 PM55 °FClear.3 mph88%30.24 "Hg6 mi
10:00 PM54 °FClear.6 mph82%30.24 "Hg6 mi
9:30 PM59 °FClear.No wind77%30.24 "Hg6 mi
9:00 PM57 °FClear.2 mph82%30.24 "Hg5 mi
8:30 PM59 °FClear.3 mph77%30.21 "Hg5 mi
8:00 PM59 °FClear.3 mph77%30.21 "Hg10 mi
Weather by CustomWeather, © 2014

See weather overviewHow to use our weather pages